カタログに戻る

SL-8 DEB

運用中PO
NORAD 6277·DEBRIS·🇷🇺 Russia

打ち上げ Aug 16, 1972 から Plesetsk Cosmodrome

Loading…

次のパス (今後24時間)

TLE

最新Source: Space-Track

元期: Sep 14, 2026, 04:00 UTC

1 06277U 72062C   26257.16728727  .00000041  00000-0  23415-4 0  9995
2 06277  82.8556 310.0745 0004645 284.5635 101.2007 13.83475575717790

AllMySatでSL-8 DEBをリアルタイム追跡

Download on the App Store